CW4541 Weather Reports


Display with metric or nautical units.
time (UTC)temp
F
wind
direction
speed
MPH
gust
MPH
rain 1hr
in
rain 24hr
in
rain mn
in
humidity
%
barometer
mb
20260831010606 67 274 1.0 3.0 0.00 0.48 0.48 38 1021.0
20260831010112 67 272 1.0 5.0 0.00 0.48 0.48 38 1020.9
20260831000606 69 278 3.0 14.0 0.00 0.48 0.48 39 1020.0
20260831000112 69 272 6.0 14.0 0.00 0.48 0.48 39 1020.0
20260830230606 68 219 0.0 3.0 0.00 0.48 0.48 50 1019.0
20260830230112 68 229 0.0 3.0 0.00 0.48 0.48 52 1019.0
20260830220112 64 262 0.0 1.0 0.02 0.48 0.48 72 1019.4
20260830210606 59 252 1.0 7.0 0.31 0.47 0.47 74 1019.7
20260830210112 58 312 2.0 7.0 0.30 0.46 0.46 73 1019.8
20260830200606 63 319 0.0 2.0 0.16 0.16 0.16 72 1019.2
20260830200112 63 319 0.0 3.0 0.16 0.16 0.16 69 1019.3
20260830190606 74 19 5.0 15.0 0.00 0.00 0.00 33 1020.1
20260830190111 76 18 5.0 14.0 0.00 0.00 0.00 27 1020.1
20260830180605 79 207 2.0 10.0 0.00 0.00 0.00 27 1020.4
20260830180112 79 196 3.0 10.0 0.00 0.00 0.00 27 1020.6
20260830170606 74 200 2.0 12.0 0.00 0.00 0.00 35 1021.3
20260830170111 73 212 2.0 12.0 0.00 0.00 0.00 36 1021.3
20260830160605 69 15 5.0 9.0 0.00 0.00 0.00 42 1021.2
20260830160112 69 15 3.0 10.0 0.00 0.00 0.00 44 1021.2
20260830150606 66 14 2.0 10.0 0.00 0.00 0.00 52 1021.0
20260830150111 65 15 2.0 10.0 0.00 0.00 0.00 53 1021.0
20260830140112 59 177 2.0 6.0 0.00 0.00 0.00 63 1020.9
20260830130605 56 151 1.0 6.0 0.00 0.00 0.00 67 1020.7
20260830130111 56 151 0.0 8.0 0.00 0.00 0.00 68 1020.6
20260830120605 57 149 5.0 12.0 0.00 0.00 0.00 65 1019.8
20260830120110 57 149 6.0 12.0 0.00 0.00 0.00 66 1019.9
20260830110606 56 135 2.0 6.0 0.00 0.00 0.00 68 1019.7
20260830110111 57 168 1.0 8.0 0.00 0.00 0.00 68 1019.8
20260830100605 57 163 1.0 6.0 0.00 0.00 0.00 65 1019.8
20260830090605 59 274 3.0 6.0 0.00 0.00 0.00 60 1020.6
20260830090111 59 271 2.0 5.0 0.00 0.00 0.00 60 1020.6
20260830080605 60 187 1.0 8.0 0.00 0.00 0.00 54 1019.5
20260830080111 60 178 2.0 8.0 0.00 0.00 0.00 54 1019.7
20260830070605 60 159 2.0 9.0 0.00 0.00 0.00 51 1019.8
20260830070111 60 133 4.0 9.0 0.00 0.00 0.00 51 1019.8
20260830060605 62 169 2.0 9.0 0.00 0.00 0.00 47 1019.8
20260830050606 61 196 0.0 6.0 0.00 0.00 0.00 48 1019.4
20260830050112 61 171 1.0 6.0 0.00 0.00 0.00 48 1019.4
20260830040605 62 5 0.0 0.0 0.00 0.00 0.00 47 1018.9
20260830040111 63 5 0.0 0.0 0.00 0.00 0.00 46 1018.8
20260830030606 67 19 1.0 14.0 0.00 0.00 0.00 37 1019.5
20260830030111 68 20 3.0 14.0 0.00 0.00 0.00 36 1019.6
20260830020606 69 21 0.0 6.0 0.00 0.00 0.00 31 1018.9
20260830020113 70 21 1.0 6.0 0.00 0.00 0.00 31 1018.9